1532268000.43,23183,21.13,73870.0,14.47,5.59,5.59,0,*40
1532268001.63,23184,21.13,73870.0,14.47,5.49,5.55,0,*4A
1532268002.85,23185,21.13,73868.5,14.45,5.71,5.77,0,*42
1532268004.05,23186,21.13,73870.5,14.39,5.71,5.73,0,*4E
1532268005.26,23187,21.13,73868.5,14.39,6.11,6.17,0,*4B
1532268006.49,23188,21.13,73870.8,14.39,6.73,6.73,0,*42
1532268007.66,23189,21.13,73870.5,14.39,6.75,6.79,0,*4F
1532268008.87,23190,21.13,73870.5,14.37,7.09,7.09,0,*45
1532268010.14,23191,21.13,73868.0,14.37,6.51,6.51,0,*44
1532268011.35,23192,21.13,73874.8,14.35,7.23,7.37,0,*40
1532268012.58,23193,21.13,73870.5,14.35,7.47,7.61,0,*40
1532268013.76,23194,21.13,73868.8,14.35,7.41,7.59,0,*4A
1532268014.97,23195,21.13,73870.8,14.35,7.59,7.69,0,*41
1532268016.17,23196,21.13,73870.8,14.35,7.37,7.47,0,*46
1532268017.4,23197,21.13,73870.8,14.33,7.01,7.15,0,*43
1532268018.6,23198,21.13,73870.0,14.33,6.79,6.83,0,*4C
1532268019.78,23199,21.13,73870.8,14.31,7.37,7.45,0,*4F
1532268021.0,23200,21.13,73868.3,14.31,7.23,7.29,0,*43
1532268022.26,23201,21.13,73870.8,14.25,7.19,7.27,0,*40
1532268023.44,23202,21.13,73868.8,14.27,7.45,7.55,0,*4D
1532268024.65,23203,21.13,73870.8,14.25,7.29,7.41,0,*41
1532268025.85,23204,21.13,73872.8,14.25,7.41,7.41,0,*48
1532268027.06,23205,21.13,73870.3,14.25,7.29,7.33,0,*42
1532268028.29,23206,21.13,73870.8,14.23,7.23,7.27,0,*48
1532268029.55,23207,21.13,73868.3,14.21,7.19,7.27,0,*42
1532268030.78,23208,21.13,73868.0,14.21,7.33,7.47,0,*43
1532268032.04,23209,21.13,73870.8,14.21,7.19,7.23,0,*48
1532268033.27,23210,21.13,73868.5,14.19,7.09,7.19,0,*43
1532268034.47,23211,21.13,73870.0,14.17,6.87,7.05,0,*46
1532268035.66,23212,21.13,73870.8,14.19,6.75,6.75,0,*40
1532268036.89,23213,21.13,73870.5,14.15,6.69,6.79,0,*4C
1532268038.09,23214,21.13,73868.3,14.13,6.83,6.91,0,*4F
1532268039.29,23215,21.13,73868.5,14.13,7.01,7.11,0,*4C
1532268040.51,23216,21.13,73870.8,14.13,6.91,7.19,0,*4F
1532268041.77,23217,21.13,73868.5,14.11,7.23,7.47,0,*4F
1532268042.94,23218,21.13,73870.3,14.09,6.75,7.01,0,*49
1532268044.14,23219,21.13,73872.8,14.09,6.65,6.79,0,*47
1532268045.35,23220,21.13,73870.5,14.05,5.93,6.07,0,*42
1532268046.57,23221,21.13,73868.0,14.03,5.81,6.11,0,*41
1532268047.78,23222,21.13,73868.0,14.01,5.89,6.21,0,*4B
1532268049.01,23223,21.13,73870.8,13.99,6.47,6.79,0,*40
1532268050.27,23224,21.13,73868.5,13.99,6.47,6.87,0,*46
1532268051.47,23225,21.13,73868.5,13.97,6.53,7.09,0,*4B
1532268052.68,23226,21.13,73870.3,13.97,6.75,7.19,0,*4D
1532268053.91,23227,21.13,73870.8,13.95,6.39,6.83,0,*44
1532268055.14,23228,21.13,73872.5,13.95,6.73,7.09,0,*46
1532268056.4,23229,21.13,73872.0,13.95,6.65,7.11,0,*49
1532268057.64,23230,21.13,73872.5,13.95,6.29,6.65,0,*4B
1532268058.85,23231,21.13,73870.5,13.93,6.35,6.83,0,*49
1532268060.06,23232,21.13,73872.3,13.93,6.61,7.09,0,*48
1532268061.29,23233,21.13,73872.5,13.91,6.57,6.93,0,*4C
1532268062.53,23234,21.13,73870.3,13.91,6.35,6.75,0,*47
1532268063.79,23235,21.13,73874.8,13.91,6.65,7.11,0,*40
1532268065.03,23236,21.13,73872.5,13.89,6.65,7.11,0,*4A
1532268066.26,23237,21.13,73868.5,13.87,6.13,6.61,0,*42
1532268067.48,23238,21.13,73872.3,13.87,6.61,7.23,0,*4F
1532268068.71,23239,21.13,73872.5,13.87,6.53,7.23,0,*4F
1532268069.92,23240,21.13,73872.3,13.87,6.65,7.41,0,*40
1532268071.12,23241,21.13,73874.8,13.87,6.43,7.09,0,*49
1532268072.33,23242,21.13,73872.5,13.87,6.29,6.91,0,*46
1532268073.6,23243,21.13,73874.3,13.85,6.39,7.15,0,*49
1532268074.86,23244,21.13,73872.0,13.81,6.35,7.27,0,*47
1532268076.09,23245,21.13,73874.3,13.81,6.13,6.83,0,*4D
1532268077.34,23246,21.13,73870.8,13.81,5.77,6.43,0,*43
1532268078.57,23247,21.13,73872.0,13.81,6.07,6.65,0,*42
1532268079.8,23248,21.13,73872.0,13.81,6.21,6.69,0,*45
1532268081.02,23249,21.13,73872.8,13.81,6.11,6.53,0,*4E
1532268082.23,23250,21.13,73874.0,13.79,6.07,6.47,0,*43
1532268083.5,23251,21.13,73872.3,13.77,6.39,6.91,0,*4A
1532268084.74,23252,21.13,73874.3,13.77,6.51,6.97,0,*41
1532268085.94,23253,21.13,73872.8,13.77,6.75,7.33,0,*49
1532268087.16,23254,21.13,73870.0,13.77,6.75,7.29,0,*45
1532268088.39,23255,21.13,73874.8,13.75,6.73,7.23,0,*4A
1532268089.63,23256,21.13,73870.8,13.73,6.39,7.09,0,*49
1532268090.82,23257,21.13,73874.0,13.75,6.29,6.97,0,*49
1532268092.07,23258,21.13,73874.8,13.73,6.57,7.29,0,*4D
1532268093.28,23259,21.13,73874.0,13.75,6.65,7.33,0,*40
1532268094.52,23260,21.13,73872.5,13.73,6.61,7.37,0,*4C
1532268095.76,23261,21.13,73872.5,13.73,6.57,7.29,0,*47
1532268097.01,23262,21.13,73872.5,13.73,6.29,7.19,0,*4E
1532268098.24,23263,21.13,73872.0,13.73,6.17,7.09,0,*43
1532268099.48,23264,21.13,73874.0,13.73,6.13,6.93,0,*42
1532268100.71,23265,21.13,73874.0,13.73,6.07,6.73,0,*48
1532268101.94,23266,21.13,73874.8,13.71,5.85,6.35,0,*42
1532268103.18,23267,21.13,73874.0,13.73,5.89,6.29,0,*40
1532268104.36,23268,21.13,73872.5,13.71,5.67,5.95,0,*49
1532268105.59,23269,21.13,73874.8,13.69,6.33,6.53,0,*4A
1532268106.84,23270,21.13,73872.3,13.67,6.43,6.51,0,*49
1532268108.09,23271,21.13,73872.3,13.69,6.47,6.57,0,*44
1532268109.35,23272,21.13,73870.8,13.65,6.47,6.57,0,*4B
1532268110.58,23273,21.13,73874.8,13.65,6.57,6.75,0,*4B
1532268111.79,23274,21.13,73872.5,13.65,6.75,6.97,0,*40
1532268113.03,23275,21.13,73870.8,13.65,6.73,6.83,0,*42
1532268114.23,23276,21.13,73872.3,13.65,6.83,7.05,0,*41
1532268115.44,23277,21.13,73870.0,13.65,6.97,7.09,0,*49
1532268116.65,23278,21.13,73870.5,13.63,6.97,7.15,0,*4D
1532268117.91,23279,21.13,73872.5,13.65,6.57,6.73,0,*47
1532268119.14,23280,21.13,73872.5,13.59,6.57,6.61,0,*4D
1532268120.38,23281,21.13,73874.0,13.59,6.47,6.43,0,*4D
1532268121.63,23282,21.13,73868.3,13.57,6.53,6.53,0,*44
1532268122.89,23283,21.13,73874.8,13.57,6.87,6.91,0,*42
1532268124.12,23284,21.13,73868.3,13.57,6.91,7.01,0,*4A
1532268125.36,23285,21.13,73874.8,13.57,6.97,7.11,0,*4C
1532268126.62,23286,21.13,73874.3,13.57,7.11,7.27,0,*45
1532268127.85,23287,21.13,73874.0,13.55,7.09,7.23,0,*4B
1532268129.09,23288,21.13,73872.8,13.57,7.23,7.45,0,*4E
1532268130.32,23289,21.13,73874.3,13.55,6.87,6.97,0,*4C
1532268131.57,23290,21.13,73874.0,13.55,6.91,7.11,0,*4C
1532268132.8,23291,21.13,73872.5,13.55,6.75,7.11,0,*47
1532268134.06,23292,21.13,73872.5,13.55,6.51,6.87,0,*4C
1532268135.3,23293,21.13,73872.5,13.53,6.39,6.87,0,*45
1532268136.51,23294,21.13,73876.5,13.53,6.87,7.29,0,*42
1532268137.76,23295,21.13,73874.0,13.51,6.73,7.15,0,*45
1532268139.03,23296,21.13,73874.0,13.51,6.35,6.91,0,*49
1532268140.28,23297,21.13,73872.8,13.51,6.69,7.19,0,*40
1532268141.51,23298,21.13,73874.0,13.51,6.43,6.93,0,*44
1532268142.71,23299,21.13,73872.5,13.49,6.47,6.93,0,*48
1532268143.92,23300,21.13,73874.0,13.49,5.81,6.33,0,*4A
1532268145.12,23301,21.13,73874.8,13.47,5.63,6.11,0,*49
1532268146.35,23302,21.13,73870.3,13.47,6.11,6.57,0,*4E
1532268147.57,23303,21.13,73872.5,13.47,6.07,6.43,0,*4D
1532268148.8,23304,21.13,73874.3,13.43,5.93,6.29,0,*4C
1532268150.01,23305,21.13,73874.0,13.45,5.67,5.85,0,*45
1532268151.19,23306,21.13,73874.8,13.41,5.63,5.99,0,*4B
1532268152.4,23307,21.13,73874.0,13.41,6.39,6.79,0,*4B
1532268153.6,23308,21.13,73872.5,13.37,6.61,6.97,0,*48
1532268154.8,23309,21.13,73872.5,13.37,6.69,7.01,0,*4F
1532268156.04,23310,21.13,73872.5,13.37,6.43,6.91,0,*47
1532268157.27,23311,21.13,73872.0,13.41,6.57,6.91,0,*42
1532268158.5,23312,21.13,73872.5,13.37,6.43,6.87,0,*42
1532268159.71,23313,21.13,73872.5,13.37,6.07,6.43,0,*4B
1532268160.91,23314,21.13,73874.5,13.37,6.33,6.69,0,*43
1532268162.12,23315,21.13,73872.3,13.33,6.29,6.73,0,*46
1532268163.31,23316,21.13,73872.8,13.37,6.69,7.01,0,*41
1532268164.54,23317,21.13,73872.5,13.35,6.65,7.01,0,*4E
1532268165.77,23318,21.13,73874.0,13.33,6.39,6.87,0,*41
1532268166.97,23319,21.13,73876.0,13.33,6.39,6.93,0,*45
1532268168.2,23320,21.13,73872.3,13.33,6.13,6.61,0,*4A
1532268169.43,23321,21.13,73872.0,13.33,5.93,6.43,0,*40
1532268170.67,23322,21.13,73874.8,13.31,6.03,6.73,0,*48
1532268171.9,23323,21.13,73870.8,13.31,6.17,6.93,0,*42
1532268173.13,23324,21.19,73876.0,13.31,5.93,6.75,0,*42
1532268174.34,23325,21.13,73872.3,13.29,6.13,6.93,0,*49
1532268175.57,23326,21.13,73874.8,13.31,6.17,6.93,0,*47
1532268176.8,23327,21.13,73872.0,13.29,5.55,6.39,0,*4A
1532268178.02,23328,21.13,73872.0,13.29,5.77,6.69,0,*40
1532268179.19,23329,21.13,73872.5,13.29,6.11,7.05,0,*49
1532268180.43,23330,21.13,73874.5,13.31,6.13,7.09,0,*46
1532268181.63,23331,21.13,73872.3,13.25,5.63,6.73,0,*4A
1532268182.82,23332,21.13,73872.3,13.27,6.07,7.01,0,*4E
1532268184.03,23333,21.13,73874.3,13.29,5.89,6.83,0,*4F
1532268185.23,23334,21.13,73870.8,13.27,5.99,6.83,0,*47
1532268186.46,23335,21.13,73872.5,13.27,6.11,7.15,0,*4B
1532268187.67,23336,21.13,73874.0,13.27,6.33,7.37,0,*48
1532268188.85,23337,21.13,73872.5,13.25,6.21,7.33,0,*4C
1532268190.08,23338,21.13,73874.8,13.27,6.11,7.15,0,*46
1532268191.3,23339,21.13,73872.8,13.27,5.63,6.69,0,*4B
1532268192.5,23340,21.13,73874.3,13.25,5.49,6.53,0,*46
1532268193.69,23341,21.13,73874.0,13.25,5.49,6.53,0,*47
1532268194.89,23342,21.13,73872.0,13.25,5.85,6.83,0,*49
1532268196.12,23343,21.13,73872.3,13.25,5.85,6.73,0,*47
1532268197.34,23344,21.13,73874.8,13.25,5.73,6.61,0,*4A
1532268198.52,23345,21.13,73870.5,13.25,6.07,6.75,0,*4E
1532268199.72,23346,21.13,73874.3,13.25,5.95,6.61,0,*40
1532268200.98,23347,21.13,73870.8,13.21,5.93,6.69,0,*4B
1532268202.21,23348,21.13,73872.0,13.21,6.03,6.73,0,*45
1532268203.44,23349,21.13,73872.5,13.21,6.13,6.79,0,*4F
1532268204.67,23350,21.13,73872.8,13.21,6.39,7.09,0,*49
1532268205.9,23351,21.13,73872.0,13.23,6.53,7.19,0,*47
1532268207.13,23352,21.13,73872.0,13.21,6.39,7.05,0,*47
1532268208.38,23353,21.13,73868.8,13.21,6.69,7.27,0,*43
1532268209.6,23354,21.13,73874.3,13.21,6.83,7.29,0,*4E
1532268210.81,23355,21.13,73872.5,13.21,6.93,7.29,0,*4E
1532268212.0,23356,21.13,73874.3,13.23,6.97,7.29,0,*4B
1532268213.21,23357,21.13,73874.3,13.21,6.97,7.37,0,*47
1532268214.43,23358,21.13,73870.5,13.21,6.93,7.29,0,*43
1532268215.66,23359,21.13,73874.5,13.21,6.83,7.19,0,*40
1532268216.92,23360,21.13,73872.3,13.21,6.69,6.91,0,*4F
1532268218.17,23361,21.19,73874.5,13.21,6.39,6.73,0,*47
1532268219.43,23362,21.13,73874.0,13.21,6.47,6.61,0,*4E
1532268220.65,23363,21.13,73872.3,13.19,6.47,6.57,0,*41
1532268221.85,23364,21.13,73874.8,13.17,7.05,7.05,0,*49
1532268223.11,23365,21.13,73874.0,13.17,6.57,6.47,0,*49
1532268224.34,23366,21.13,73870.5,13.13,6.79,6.87,0,*4E
1532268225.54,23367,21.13,73874.3,13.17,7.05,7.05,0,*4A
1532268226.77,23368,21.13,73872.3,13.13,7.09,7.11,0,*48
1532268228.03,23369,21.13,73872.0,13.13,6.91,6.91,0,*40
1532268229.26,23370,21.13,73876.5,13.11,6.53,6.73,0,*48
1532268230.43,23371,21.13,73874.3,13.11,6.79,7.01,0,*45
1532268231.66,23372,21.13,73872.0,13.11,6.39,6.65,0,*41
1532268232.91,23373,21.13,73874.3,13.09,6.25,6.47,0,*44
1532268234.14,23374,21.13,73874.3,13.07,6.65,6.73,0,*4E
1532268235.38,23375,21.13,73872.8,13.05,7.05,7.27,0,*4A
1532268236.61,23376,21.13,73872.5,13.05,6.79,7.15,0,*42
1532268237.85,23377,21.13,73874.8,13.05,6.47,6.79,0,*45
1532268239.06,23378,21.13,73876.0,13.03,6.29,6.65,0,*49
1532268240.25,23379,21.13,73874.3,13.03,6.33,6.75,0,*42
1532268241.46,23380,21.13,73874.8,13.03,5.95,6.39,0,*43
1532268242.71,23381,21.13,73874.3,13.01,6.17,6.57,0,*41
1532268243.97,23382,21.13,73874.5,12.97,5.51,5.85,0,*41
1532268245.2,23383,21.13,73872.0,12.97,5.89,6.21,0,*48
1532268246.46,23384,21.13,73872.0,12.97,5.51,5.89,0,*4B
1532268247.72,23385,21.13,73872.3,12.97,5.89,6.13,0,*4F
1532268248.91,23386,21.13,73872.5,12.95,5.67,5.99,0,*4F
1532268250.12,23387,21.13,73872.3,12.95,5.93,6.25,0,*41
1532268251.35,23388,21.13,73874.3,12.97,5.67,5.89,0,*42
1532268252.58,23389,21.13,73872.5,12.95,5.77,5.93,0,*4B
1532268253.83,23390,21.13,73872.5,12.91,5.81,5.89,0,*45
1532268255.03,23391,21.13,73874.5,12.89,5.71,5.85,0,*4E
1532268256.25,23392,21.13,73874.0,12.89,6.03,6.17,0,*43
1532268257.45,23393,21.13,73872.0,12.89,5.71,5.77,0,*41
1532268258.66,23394,21.13,73872.3,12.87,6.03,6.07,0,*4A
1532268259.92,23395,21.13,73870.5,12.87,6.39,6.35,0,*43
1532268261.18,23396,21.13,73872.0,12.87,6.47,6.51,0,*4B
1532268262.4,23397,21.13,73874.5,12.85,6.61,6.73,0,*4C
1532268263.65,23398,21.13,73874.0,12.87,6.65,6.73,0,*45
1532268264.88,23399,21.13,73874.3,12.85,6.91,6.91,0,*41
1532268266.09,23400,21.13,73868.8,12.85,6.79,6.91,0,*40
1532268267.29,23401,21.13,73874.5,12.85,6.73,6.79,0,*4D
1532268268.46,23402,21.13,73872.5,12.85,6.83,7.01,0,*4F
1532268269.68,23403,21.13,73874.5,12.83,6.91,7.01,0,*4B
1532268270.91,23404,21.13,73872.3,12.83,7.09,7.27,0,*48
1532268272.16,23405,21.13,73874.3,12.83,6.69,6.69,0,*45
1532268273.41,23406,21.13,73874.8,12.83,6.47,6.57,0,*47
1532268274.64,23407,21.13,73874.3,12.83,6.87,6.97,0,*46
1532268275.82,23408,21.13,73874.8,12.81,6.75,6.93,0,*42
1532268277.02,23409,21.13,73872.0,12.83,6.79,6.79,0,*49
1532268278.25,23410,21.19,73874.3,12.81,6.43,6.61,0,*43
1532268279.48,23411,21.13,73870.0,12.81,6.51,6.61,0,*41
1532268280.71,23412,21.13,73874.3,12.81,6.61,6.73,0,*42
1532268281.94,23413,21.13,73874.5,12.81,6.65,6.65,0,*40
1532268283.15,23414,21.19,73874.3,12.79,6.25,6.29,0,*4C
1532268284.34,23415,21.13,73872.5,12.77,6.21,6.21,0,*4F
1532268285.53,23416,21.13,73870.5,12.77,6.25,6.25,0,*4C
1532268286.77,23417,21.13,73872.0,12.77,6.35,6.35,0,*4D
1532268287.95,23418,21.13,73874.8,12.77,6.11,6.11,0,*42
1532268289.15,23419,21.13,73874.3,12.73,6.07,6.13,0,*42
1532268290.34,23420,21.13,73872.0,12.73,5.95,5.95,0,*4D
1532268291.55,23421,21.13,73870.8,12.69,6.17,6.25,0,*46
1532268292.78,23422,21.13,73868.3,12.69,6.17,6.39,0,*48
1532268294.04,23423,21.13,73874.0,12.67,6.13,6.43,0,*4E
1532268295.31,23424,21.13,73870.8,12.67,6.17,6.51,0,*4E
1532268296.55,23425,21.13,73870.5,12.65,6.51,6.91,0,*43
1532268297.8,23426,21.13,73872.3,12.65,6.57,6.91,0,*46
1532268299.03,23427,21.13,73870.0,12.63,6.47,6.79,0,*46
1532268300.29,23428,21.13,73872.5,12.63,6.57,6.91,0,*4E
1532268301.52,23429,21.13,73872.8,12.63,6.53,6.79,0,*4D
1532268302.74,23430,21.13,73870.5,12.61,6.33,6.47,0,*4C
1532268303.95,23431,21.13,73870.3,12.59,6.21,6.51,0,*42
1532268305.17,23432,21.13,73872.5,12.57,6.03,6.29,0,*40
1532268306.38,23433,21.13,73868.0,12.55,6.03,6.35,0,*4E
1532268307.61,23434,21.13,73870.0,12.55,6.17,6.51,0,*4E
1532268308.82,23435,21.13,73874.0,12.51,6.65,6.93,0,*40
1532268310.03,23436,21.13,73872.8,12.51,6.79,7.23,0,*44
1532268311.26,23437,21.19,73872.3,12.51,6.91,7.27,0,*47
1532268312.49,23438,21.13,73872.3,12.51,6.91,7.27,0,*48
1532268313.73,23439,21.13,73872.0,12.51,6.91,7.27,0,*49
1532268314.96,23440,21.13,73872.3,12.51,6.91,7.27,0,*47
1532268316.17,23441,21.19,73872.5,12.51,6.65,6.93,0,*43
1532268317.4,23442,21.19,73874.0,12.51,6.87,7.15,0,*43
1532268318.63,23443,21.13,73870.8,12.45,6.69,6.93,0,*48
1532268319.89,23444,21.13,73872.0,12.45,6.57,6.73,0,*4C
1532268321.15,23445,21.13,73870.0,12.45,6.47,6.73,0,*4C
1532268322.35,23446,21.19,73872.8,12.43,6.57,6.93,0,*46
1532268323.58,23447,21.13,73870.5,12.43,6.87,7.19,0,*49
1532268324.79,23448,21.13,73874.3,12.43,6.83,7.27,0,*4F
1532268326.05,23449,21.13,73872.5,12.41,6.65,7.11,0,*41
1532268327.26,23450,21.13,73874.3,12.43,6.73,7.29,0,*47
1532268328.44,23451,21.13,73872.3,12.43,6.79,7.41,0,*42
1532268329.7,23452,21.13,73874.3,12.41,6.57,7.23,0,*4B
1532268330.93,23453,21.13,73874.0,12.41,6.43,7.09,0,*47
1532268332.17,23454,21.19,73876.3,12.41,6.35,7.05,0,*4D
1532268333.43,23455,21.19,73874.3,12.41,6.69,7.27,0,*45
1532268334.64,23456,21.13,73874.5,12.43,6.47,7.09,0,*44
1532268335.84,23457,21.19,73872.3,12.43,6.69,7.29,0,*4B
1532268337.06,23458,21.19,73872.8,12.43,6.73,7.37,0,*40
1532268338.26,23459,21.13,73874.5,12.43,6.61,7.37,0,*42
1532268339.5,23460,21.13,73874.8,12.41,6.65,7.37,0,*4E
1532268340.74,23461,21.13,73874.5,12.41,6.65,7.45,0,*4A
1532268341.95,23462,21.19,73874.0,12.43,6.61,7.51,0,*4A
1532268343.19,23463,21.13,73872.0,12.43,6.51,7.47,0,*4F
1532268344.4,23464,21.13,73872.3,12.43,6.47,7.37,0,*48
1532268345.61,23465,21.19,73872.3,12.43,6.51,7.41,0,*4F
1532268346.8,23466,21.13,73874.0,12.43,6.03,6.97,0,*41
1532268348.0,23467,21.19,73878.0,12.43,6.07,7.15,0,*4F
1532268349.2,23468,21.13,73870.8,12.41,5.99,7.01,0,*43
1532268350.41,23469,21.19,73876.5,12.41,6.11,6.93,0,*4B
1532268351.65,23470,21.13,73874.0,12.43,6.13,6.87,0,*46
1532268352.87,23471,21.13,73872.5,12.41,6.11,6.69,0,*47
1532268354.14,23472,21.13,73872.0,12.41,6.43,7.15,0,*49
1532268355.4,23473,21.13,73874.8,12.41,6.47,7.11,0,*48
1532268356.67,23474,21.13,73872.5,12.41,6.65,7.27,0,*4A
1532268357.9,23475,21.13,73872.5,12.41,6.47,7.33,0,*4E
1532268359.11,23476,21.13,73872.5,12.43,6.65,7.51,0,*4B
1532268360.35,23477,21.13,73874.0,12.41,6.53,7.45,0,*48
1532268361.58,23478,21.13,73874.5,12.41,6.57,7.45,0,*43
1532268362.82,23479,21.13,73874.0,12.41,6.57,7.59,0,*4F
1532268364.05,23480,21.13,73874.3,12.43,6.17,7.15,0,*47
1532268365.25,23481,21.13,73874.3,12.43,5.89,6.79,0,*49
1532268366.48,23482,21.13,73872.5,12.43,6.17,7.19,0,*49
1532268367.71,23483,21.13,73872.5,12.41,6.11,7.15,0,*40
1532268368.91,23484,21.13,73874.3,12.43,6.03,6.97,0,*4D
1532268370.08,23485,21.19,73878.0,12.43,5.99,6.79,0,*4C
1532268371.28,23486,21.19,73876.8,12.43,5.99,6.73,0,*45
1532268372.49,23487,21.13,73874.5,12.41,6.11,6.83,0,*4A
1532268373.66,23488,21.13,73874.8,12.43,5.59,6.29,0,*48
1532268374.86,23489,21.13,73872.5,12.43,6.07,6.61,0,*4D
1532268376.09,23490,21.13,73874.3,12.43,6.17,6.87,0,*4C
1532268377.29,23491,21.13,73874.3,12.43,5.99,6.57,0,*45
1532268378.53,23492,21.19,73876.0,12.43,6.35,6.87,0,*4E
1532268379.74,23493,21.19,73876.0,12.43,6.51,6.97,0,*4C
1532268380.99,23494,21.19,73876.8,12.41,6.51,6.97,0,*49
1532268382.22,23495,21.19,73876.0,12.41,6.47,6.83,0,*4A
1532268383.43,23496,21.13,73874.0,12.43,6.51,6.93,0,*4D
1532268384.66,23497,21.13,73874.5,12.43,6.39,6.73,0,*4C
1532268385.86,23498,21.13,73874.8,12.43,6.57,6.79,0,*41
1532268387.09,23499,21.19,73876.0,12.43,6.57,6.87,0,*41
1532268388.3,23500,21.13,73874.8,12.43,6.57,6.97,0,*41
1532268389.53,23501,21.19,73874.8,12.41,6.65,7.01,0,*4D
1532268390.77,23502,21.13,73874.0,12.41,6.21,6.53,0,*48
1532268392.0,23503,21.13,73874.3,12.41,6.21,6.53,0,*49
1532268393.23,23504,21.13,73876.3,12.43,6.47,6.73,0,*4E
1532268394.45,23505,21.13,73874.3,12.43,6.39,6.69,0,*4D
1532268395.69,23506,21.13,73874.3,12.41,5.99,6.35,0,*4C
1532268396.93,23507,21.13,73876.5,12.41,5.85,6.03,0,*45
1532268398.17,23508,21.13,73876.5,12.41,6.11,6.47,0,*44
1532268399.43,23509,21.13,73872.8,12.41,6.35,6.69,0,*4F
1532268400.67,23510,21.13,73876.0,12.41,6.33,6.65,0,*4D
1532268401.9,23511,21.13,73876.8,12.41,5.55,5.95,0,*43
1532268403.1,23512,21.19,73878.3,12.39,5.49,5.85,0,*43
1532268404.3,23513,21.13,73878.0,12.37,5.29,5.71,0,*41
1532268405.51,23514,21.19,73876.0,12.37,5.63,5.99,0,*4E
1532268406.74,23515,21.13,73876.5,12.37,6.07,6.53,0,*4B
1532268407.97,23516,21.13,73878.5,12.37,5.95,6.43,0,*41
1532268409.18,23517,21.13,73878.3,12.35,5.71,6.35,0,*49
1532268410.4,23518,21.13,73876.5,12.37,5.29,5.93,0,*46
1532268411.63,23519,21.13,73878.3,12.33,5.07,5.89,0,*44
1532268412.84,23520,21.19,73876.5,12.35,5.01,5.95,0,*43
1532268414.08,23521,21.19,73878.8,12.33,4.63,5.63,0,*48
1532268415.29,23522,21.13,73874.8,12.31,4.59,5.63,0,*40
1532268416.48,23523,21.13,73874.8,12.31,4.37,5.63,0,*49
1532268417.7,23524,21.13,73874.5,12.29,4.49,5.81,0,*42
1532268418.91,23525,21.13,73876.5,12.29,4.23,5.71,0,*40
1532268420.12,23526,21.13,73874.3,12.29,4.41,5.99,0,*41
1532268421.32,23527,21.19,73878.3,12.29,4.45,6.07,0,*40
1532268422.53,23528,21.13,73872.0,12.29,4.23,5.95,0,*47
1532268423.74,23529,21.19,73878.8,12.27,3.89,5.81,0,*4A
1532268424.95,23530,21.13,73874.3,12.23,4.31,6.29,0,*43
1532268426.13,23531,21.13,73872.5,12.23,4.23,6.33,0,*4A
1532268427.34,23532,21.13,73874.8,12.23,4.05,6.29,0,*46
1532268428.55,23533,21.19,73878.8,12.23,3.71,6.03,0,*4B
1532268429.78,23534,21.19,73876.5,12.27,2.81,5.27,0,*43
1532268430.99,23535,21.19,73876.8,12.23,2.59,5.15,0,*42
1532268432.22,23536,21.19,73876.5,12.23,2.55,5.27,0,*4C
1532268433.48,23537,21.13,73872.5,12.21,2.81,5.55,0,*43
1532268434.71,23538,21.13,73874.8,12.21,2.39,5.29,0,*44
1532268435.97,23539,21.13,73874.0,12.21,2.51,5.55,0,*40
1532268437.2,23540,21.13,73874.8,12.21,2.39,5.63,0,*45
1532268438.44,23541,21.19,73878.5,12.21,2.47,5.63,0,*4D
1532268439.67,23542,21.13,73876.8,12.21,2.59,5.63,0,*41
1532268440.88,23543,21.13,73874.0,12.19,2.25,5.29,0,*4E
1532268442.09,23544,21.19,73878.0,12.21,2.27,5.19,0,*43
1532268443.35,23545,21.19,73878.0,12.21,1.85,5.05,0,*44
1532268444.55,23546,21.13,73874.8,12.19,1.79,5.11,0,*4A
1532268445.76,23547,21.13,73874.3,12.19,2.17,5.45,0,*41
1532268446.97,23548,21.19,73876.0,12.19,2.47,5.67,0,*4B
1532268448.18,23549,21.19,73876.8,12.19,2.25,5.41,0,*4A
1532268449.44,23550,21.19,73876.5,12.21,2.17,5.55,0,*4D
1532268450.65,23551,21.13,73876.5,12.19,2.13,5.63,0,*46
1532268451.87,23552,21.13,73878.0,12.19,1.97,5.11,0,*4F
1532268453.11,23553,21.19,73876.0,12.19,1.63,4.71,0,*42
1532268454.32,23554,21.13,73876.8,12.19,1.17,4.27,0,*45
1532268455.56,23555,21.19,73878.5,12.19,1.55,4.59,0,*4B
1532268456.74,23556,21.19,73878.8,12.19,1.41,4.27,0,*44
1532268458.0,23557,21.19,73882.5,12.17,1.21,3.97,0,*41
1532268459.26,23558,21.19,73876.5,12.17,1.09,3.79,0,*44
1532268460.5,23559,21.19,73876.0,12.17,1.37,3.85,0,*4B
1532268461.75,23560,21.13,73876.3,12.17,1.59,3.75,0,*46
1532268462.99,23561,21.13,73876.5,12.17,1.97,4.23,0,*41
1532268464.24,23562,21.19,73878.5,12.17,2.69,4.79,0,*4F
1532268465.45,23563,21.13,73876.3,12.15,3.37,5.49,0,*44
1532268466.69,23564,21.19,73878.3,12.15,3.75,5.85,0,*45
1532268467.9,23565,21.19,73876.5,12.17,4.45,6.03,0,*4F
1532268469.13,23566,21.13,73874.8,12.15,5.01,6.17,0,*4A
1532268470.31,23567,21.19,73878.3,12.15,5.33,5.95,0,*43
1532268471.51,23568,21.19,73876.0,12.15,5.85,6.29,0,*45
1532268472.78,23569,21.19,73876.0,12.13,5.89,6.35,0,*43
1532268473.99,23570,21.19,73878.3,12.11,6.11,6.43,0,*4A
1532268475.19,23571,21.19,73876.5,12.11,6.21,6.61,0,*48
1532268476.41,23572,21.19,73878.3,12.11,6.35,6.83,0,*42
1532268477.59,23573,21.19,73876.3,12.11,6.33,6.79,0,*40
1532268478.83,23574,21.19,73876.5,12.09,6.29,6.87,0,*44
1532268480.06,23575,21.13,73874.5,12.09,5.95,6.47,0,*4D
1532268481.27,23576,21.13,73874.0,12.07,5.99,6.47,0,*4C
1532268482.46,23577,21.13,73872.8,12.07,6.33,6.75,0,*4F
1532268483.69,23578,21.13,73874.0,12.05,6.53,6.97,0,*48
1532268484.89,23579,21.19,73874.5,12.05,6.83,7.41,0,*4E
1532268486.13,23580,21.13,73872.5,12.01,6.93,7.61,0,*4F
1532268487.39,23581,21.19,73878.3,12.01,6.61,7.15,0,*40
1532268488.65,23582,21.19,73876.3,12.01,6.57,7.19,0,*4A
1532268489.89,23583,21.13,73874.0,12.01,6.13,6.79,0,*4C
1532268491.12,23584,21.13,73874.3,12.01,5.71,6.39,0,*48
1532268492.3,23585,21.19,73878.8,11.99,5.67,6.21,0,*45
1532268493.54,23586,21.19,73878.3,12.01,5.81,6.33,0,*4F
1532268494.76,23587,21.19,73876.0,11.97,5.99,6.53,0,*4D
1532268495.99,23588,21.19,73876.8,11.97,6.11,6.65,0,*44
1532268497.22,23589,21.19,73878.5,11.97,6.17,6.75,0,*42
1532268498.46,23590,21.19,73874.3,11.95,6.43,6.75,0,*49
1532268499.66,23591,21.19,73874.0,11.97,6.75,6.97,0,*43
1532268500.92,23592,21.13,73874.8,11.97,6.87,6.87,0,*4C
1532268502.15,23593,21.19,73876.3,11.93,6.43,6.39,0,*44
1532268503.41,23594,21.13,73874.5,11.95,6.61,6.51,0,*4B
1532268504.61,23595,21.19,73876.0,11.93,6.83,6.65,0,*47
1532268505.81,23596,21.19,73876.8,11.93,7.01,6.87,0,*43
1532268507.04,23597,21.19,73876.5,11.93,7.23,7.11,0,*4C
1532268508.22,23598,21.19,73872.3,11.93,7.51,7.51,0,*42
1532268509.46,23599,21.19,73874.0,11.91,7.59,7.61,0,*4A
1532268510.69,23600,21.19,73872.5,11.91,7.59,7.61,0,*49
1532268511.91,23601,21.19,73872.8,11.89,7.47,7.47,0,*4A
1532268513.17,23602,21.19,73872.3,11.91,7.61,7.69,0,*48
1532268514.41,23603,21.13,73872.0,11.95,7.73,7.79,0,*4F
1532268515.61,23604,21.19,73876.3,11.93,7.55,7.65,0,*47
1532268516.82,23605,21.19,73874.5,11.93,7.51,7.61,0,*46
1532268518.05,23606,21.19,73874.5,11.91,7.47,7.59,0,*4B
1532268519.31,23607,21.13,73870.5,11.91,7.47,7.69,0,*49
1532268520.53,23608,21.19,73874.8,11.91,7.37,7.47,0,*4D
1532268521.73,23609,21.19,73872.3,11.89,7.27,7.45,0,*46
1532268522.9,23610,21.19,73874.8,11.89,7.37,7.41,0,*4B
1532268524.14,23611,21.19,73872.0,11.91,7.19,7.29,0,*41